Weather in Kandrykul'

Russia / Republic of Bashkortostan     54°29′44″N   54°01′04″E
temp.,
°C
wind,
m/s
gust,
m/s
humid.,
%
clouds,
%
prec.,
mm/h
press.,
hPa
HPBL,
m
27 february, sat
sat2723:00−19sse5149141 0.0 1017385
02:00−16sse71587100 0.0 1012610
05:00−14sse81793100 1.7 1008632
08:00−13sse71591100 3.2 1004687
11:00−12sse71392100 3.7 1002537
14:00−8sse61094100 0.4 1001506
17:00−6se5894100 1.4 1000388
20:00−6se3596100 0.8 999185
28 february, sun
sun2823:00−4ese2397100 1.8 99983
02:00−3ese1298100 1.0 99856
05:00−6nne3497100 1.8 998103
08:00−11n349698 0.4 999139
11:00−12n479597 0.6 1001284
14:00−11nnw5794100 0.1 1002388
17:00−11nnw5893100 0.2 1005422
20:00−14nw4896100 0.1 1007263
1 march, mon
mon123:00−18nw3499100 0.2 101086
02:00−19wnw2499100 0.1 101278
05:00−20nw2399100 0.1 101480
08:00−21nw2299100 0.1 101635
11:00−19nw2498100 0.1 1018190
14:00−17nw3495100 0.0 1019287
17:00−16nw3595100 0.1 1020329
20:00−21nw22100100 0.0 102120
2 march, tue
tue223:00−23w1110093 0.1 102220
02:00−24sw1210069 0.0 102120
05:00−24ssw229855 0.0 102020
08:00−24ssw339710 0.0 101924
11:00−19ssw4109319 0.0 1016268
14:00−15ssw7129187 0.0 1014360
17:00−14ssw7139294 0.1 1011409
20:00−13ssw71493100 0.6 1009547
3 march, wed
wed323:00−12ssw71491100 1.0 1007469
02:00−10s71493100 0.6 1004448
05:00−8s71489100 1.2 1002445
08:00−6s51193100 0.1 1000377
11:00−3ssw4895100 0.6 1000472
14:00−2sw3595100 0.4 1000413
17:00−1w2497100 1.1 1000290
20:00−7nnw71195100 1.0 1001392